User: anonymous   Login
Location: Poughquag
(41.6090°N, 73.6820°W)
Time: 13:26:22
(UTC-05:00)
Language:

Hubble Space Telescope - Orbit

View from above orbital plane
View from above orbital plane
View from above satellite
View from above satellite

Ground track
Ground track

The orbit data is extracted from the following two-line orbital elements,

1 20580U 90037B   23334.05431826  .00008754  00000-0  44591-3 0  9998
2 20580  28.4682 243.0350 0002681  18.2914 108.2920 15.15040290646887
Epoch (UTC): 30 November 2023 01:18:13
Eccentricity: 0.0002681
inclination: 28.4682°
perigee height: 519 km
apogee height: 523 km
right ascension of ascending node: 243.0350°
argument of perigee: 18.2914°
revolutions per day: 15.15040290
mean anomaly at epoch: 108.2920°
orbit number at epoch: 64688

The dashed part of the orbit path shows where the satellite is in the earth's shadow,  

DLR